STARLINK-36652

Last updated on Sun Mar 15 2026 00:02:07 GMT+0000 (Coordinated Universal Time)

1 67839U 26033U 26073.58335648 -.01944464 00000+0 -22704-1 0 9996 2 67839 42.9991 241.7030 0001484 276.4168 174.6616 15.63986990 5458
UTC large
Height (km)
Speed (km/s)
/
Latitude / Longitude
Inclination (degrees)
Orbital Period (minutes)
Azimuth
Elevation
Range (km)
Doppler Factor

Next 0 passes for location: London (51.5072 / 0.1276)

Sorry there are no passes over London.